Tracking 35055 objects as of 19-Aug-2026
HD Live streaming from Space Station
objects crossing your sky now

GALAXY 35

Track GALAXY 35 now!
GALAXY 35 is classified as:


NORAD ID: 54741
Int'l Code: 2022-170A
Launch date: December 13, 2022
Source: United States (US)
Launch site: FRENCH GUIANA (FRGUI)
Your satellite tracking list
Your tracking list is empty




NASA's NSSDC Master Catalog

Two Line Element Set (TLE):
1 54741U 22170A   26230.47437387 -.00000167  00000-0  00000-0 0  9994
2 54741   0.0323 253.1390 0002292 255.4693 255.9063  1.00274911 13518
Source of the keplerian elements: AFSPC